CAPE
0 0 0 0 0 0 0 0 0 0 0 0 0 0 0 0 0 0 0 0 0 0 0 0 0 0 0 0 0 0 0 0 0 0 0 0 0 0 0 0 0 0 0 0
0 0 0 0 0 0 0 0 0 0 0 0 0 0 0 0 0 0 0 0 0 0 0 0 0 0 0 0 0 0 0 0 0 0 0 0 0 0 0 0 0 0 0 0
0 0 0 0 0 0 0 0 0 0 0 0 0 0 0 0 0 0 0 0 0 0 0 0 0 0 0 0 0 0 0 0 0 0 0 0 0 0 0 0 0 0 0 0
0 0 0 0 0 0 0 0 0 0 0 0 0 0 0 0 0 0 0 0 0 0 0 0 0 0 0 0 0 0 0 0 0 0 0 0 0 0 0 0 0 0 0 0
0 0 0 0 0 0 0 0 0 0 0 0 0 0 0 0 0 0 0 0 0 0 0 0 0 0 0 0 0 0 0 0 0 0 0 0 0 0 0 0 0 0 0 0
0 0 0 0 0 0 0 0 0 0 0 0 0 0 0 0 0 0 0 0 0 0 0 0 0 0 0 0 0 0 0 0 0 0 0 0 0 0 0 0 0 0 0 0
0 0 0 0 0 0 0 0 0 0 0 0 0 0 0 0 0 0 0 0 0 0 0 0 0 0 0 0 0 0 0 0 0 0 0 0 0 0 0 0 0 0 0 0
0 0 0 0 0 0 0 0 0 0 0 0 0 0 0 0 0 0 0 0 0 0 0 0 0 0 0 0 0 0 0 0 0 0 0 0 0 0 0 0 0 0 0 0
0 0 0 0 0 0 0 0 0 0 0 0 0 0 0 0 0 0 0 0 0 0 0 0 0 0 0 0 0 0 0 0 0 0 0 0 0 0 0 0 0 0 0 0
0 0 0 0 0 0 0 0 0 0 0 0 0 0 0 0 0 0 0 0 0 0 0 0 0 0 0 0 0 0 0 0 0 0 0 0 0 0 0 0 0 0 0 0
0 0 0 0 0 0 0 0 0 0 0 0 0 0 0 0 0 0 0 0 0 0 0 0 0 0 0 0 0 0 0 0 0 0 0 0 0 0 0 0 0 0 0 0
0 0 0 0 0 0 0 0 0 0 0 0 0 0 0 0 0 0 0 0 0 0 0 0 0 0 0 0 0 0 0 0 0 0 0 0 0 0 0 0 0 0 4 1
0 0 0 0 0 0 0 0 0 0 0 0 0 0 0 0 0 0 0 0 0 0 0 0 0 0 0 0 0 0 0 0 0 0 0 0 0 0 0 0 0 0 2 5
0 0 0 0 0 0 0 0 0 0 0 0 0 0 0 0 0 0 0 0 0 0 0 0 0 0 0 0 0 0 0 0 0 0 0 0 0 0 0 0 0 0 0 0
0 0 0 0 0 0 0 0 0 0 0 0 0 0 0 0 0 0 0 0 0 0 0 0 0 0 0 0 0 0 0 0 0 0 0 0 0 0 0 0 0 0 0 0
0 0 0 0 0 0 0 0 0 0 0 0 0 0 0 0 0 0 0 0 0 0 0 0 0 0 0 0 0 0 0 0 0 0 0 0 0 0 0 0 0 0 0 0
0 0 0 0 0 0 0 0 0 0 0 0 0 0 0 0 0 0 0 0 0 0 0 0 0 0 0 0 0 0 0 0 0 0 0 0 0 0 0 0 0 0 0 0
0 0 0 0 0 0 0 0 0 0 0 0 0 0 0 0 0 0 0 0 0 0 0 0 0 0 0 0 0 0 0 0 0 0 0 0 0 0 0 0 0 0 0 0
0 0 0 0 0 0 0 0 0 0 0 0 0 0 0 0 0 0 0 0 0 0 0 0 0 0 0 0 0 0 0 0 0 0 0 0 0 0 0 0 0 0 0 0
0 0 0 0 0 0 0 0 0 0 0 0 0 0 0 0 0 0 0 0 0 0 0 0 0 0 0 0 0 0 0 0 0 0 0 0 0 0 0 0 0 0 0 0
0 0 0 0 0 0 0 0 0 0 0 0 0 0 0 0 0 0 0 0 0 0 0 0 0 0 0 0 0 0 0 0 0 0 0 0 0 0 0 0 0 0 0 0
0 0 0 0 0 0 0 0 0 0 0 0 0 0 0 0 0 0 0 0 0 0 0 0 0 0 0 0 0 0 0 0 0 0 0 0 0 0 0 0 0 0 0 0
0 0 0 0 0 0 0 0 0 0 0 0 0 0 0 0 0 0 0 0 0 0 0 0 0 0 0 0 0 0 0 0 0 0 0 0 0 0 0 0 0 0 0 0
0 0 0 0 0 0 0 0 0 0 0 0 0 0 0 0 0 0 0 0 0 0 0 0 0 0 0 0 0 0 0 0 0 0 0 0 0 0 0 0 0 0 0 0
0 0 0 0 0 0 0 0 0 0 0 0 0 0 0 0 0 0 0 0 0 0 0 0 0 0 0 0 0 0 0 0 0 0 0 0 0 0 0 0 0 0 0 0
0 0 0 0 0 0 0 0 0 0 0 0 0 0 0 0 0 0 0 0 0 0 0 0 0 0 0 0 0 0 0 0 0 0 0 0 0 0 0 0 0 0 0 0
0 0 0 0 0 0 0 0 0 0 0 0 0 0 0 0 0 0 0 0 0 0 0 0 0 0 0 0 0 0 0 0 0 0 0 0 0 0 0 0 0 0 0 0
CIN
-0 -0 -0 -0 -0 -0 -0 -0 -0 -0 -0 -0 -0 -0 -0 -0 -0 -0 -0 -0 -0 -0 -0 -0 -0 -0 -0 -0 -0 -0 -0 -0 -0 -0 -0 -0 -0 -0 -0 -0 -0 -0 -0 -0
-0 -0 -0 -0 -0 -0 -0 -0 -0 -0 -0 -0 -0 -0 -0 -0 -0 -0 -0 -0 -0 -0 -0 -0 -0 -0 -0 -0 -0 -0 -0 -0 -0 -0 -0 -0 -0 -0 -0 -0 -0 -0 -0 -0
-0 -0 -0 -0 -0 -0 -0 -0 -0 -0 -0 -0 -0 -0 -0 -0 -0 -0 -0 -0 -0 -0 -0 -0 -0 -0 -0 -0 -0 -0 -0 -0 -0 -0 -0 -0 -0 -0 -0 -0 -0 -0 -0 -0
-0 -0 -0 -0 -0 -0 -0 -0 -0 -0 -0 -0 -0 -0 -0 -0 -0 -0 -0 -0 -0 -0 -0 -0 -0 -0 -0 -0 -0 -0 -0 -0 -0 -0 -0 -0 -0 -0 -0 -0 -0 -0 -0 -0
-0 -0 -0 -0 -0 -0 -0 -0 -0 -0 -0 -0 -0 -0 -0 -0 -0 -0 -0 -0 -0 -0 -0 -0 -0 -0 -0 -0 -0 -0 -0 -0 -0 -0 -0 -0 -0 -0 -0 -0 -0 -0 -0 -0
-0 -0 -0 -0 -0 -0 -0 -0 -0 -0 -0 -0 -0 -0 -0 -0 -0 -0 -0 -0 -0 -0 -0 -0 -0 -0 -0 -0 -0 -0 -0 -0 -0 -0 -0 -0 -0 -0 -0 -0 -0 -0 -0 -0
-0 -0 -0 -0 -0 -0 -0 -0 -0 -0 -0 -0 -0 -0 -0 -0 -0 -0 -0 -0 -0 -0 -0 -0 -0 -0 -0 -0 -0 -0 -0 -0 -0 -0 -0 -0 -0 -0 -0 -0 -0 -0 -0 -0
-0 -0 -0 -0 -0 -0 -0 -0 -0 -0 -0 -0 -0 -0 -0 -0 -0 -0 -0 -0 -0 -0 -0 -0 -0 -0 -0 -0 -0 -0 -0 -0 -0 -0 -0 -0 -0 -0 -0 -0 -0 -0 -0 -0
-0 -0 -0 -0 -0 -0 -0 -0 -0 -0 -0 -0 -0 -0 -0 -0 -0 -0 -0 -0 -0 -0 -0 -0 -0 -0 -0 -0 -0 -0 -0 -0 -0 -0 -0 -0 -0 -0 -0 -0 -0 -0 -0 -0
-0 -0 -0 -0 -0 -0 -0 -0 -0 -0 -0 -0 -0 -0 -0 -0 -0 -0 -0 -0 -0 -0 -0 -0 -0 -0 -0 -0 -0 -0 -0 -0 -0 -0 -0 -0 -0 -0 -0 -0 -0 -0 -0 -0
-0 -0 -0 -0 -0 -0 -0 -0 -0 -0 -0 -0 -0 -0 -0 -0 -0 -0 -0 -0 -0 -0 -0 -0 -0 -0 -0 -0 -0 -0 -0 -0 -0 -0 -0 -0 -0 -0 -0 -0 -0 -0 -0 -0
-0 -0 -0 -0 -0 -0 -0 -0 -0 -0 -0 -0 -0 -0 -0 -0 -0 -0 -0 -0 -0 -0 -0 -0 -0 -0 -0 -0 -0 -0 -0 -0 -0 -0 -0 -0 -0 -0 -0 -0 -0 -0 -0 -2
-0 -0 -0 -0 -0 -0 -0 -0 -0 -0 -0 -0 -0 -0 -0 -0 -0 -0 -0 -0 -0 -0 -0 -0 -0 -0 -0 -0 -0 -0 -0 -0 -0 -0 -0 -0 -0 -0 -0 -0 -0 -0 -0 -0
-0 -0 -0 -0 -0 -0 -0 -0 -0 -0 -0 -0 -0 -0 -0 -0 -0 -0 -0 -0 -0 -0 -0 -0 -0 -0 -0 -0 -0 -0 -0 -0 -0 -0 -0 -0 -0 -0 -0 -0 -0 -0 -0 -0
-0 -0 -0 -0 -0 -0 -0 -0 -0 -0 -0 -0 -0 -0 -0 -0 -0 -0 -0 -0 -0 -0 -0 -0 -0 -0 -0 -0 -0 -0 -0 -0 -0 -0 -0 -0 -0 -0 -0 -0 -0 -0 -0 -0
-0 -0 -0 -0 -0 -0 -0 -0 -0 -0 -0 -0 -0 -0 -0 -0 -0 -0 -0 -0 -0 -0 -0 -0 -0 -0 -0 -0 -0 -0 -0 -0 -0 -0 -0 -0 -0 -0 -0 -0 -0 -0 -0 -0
-0 -0 -0 -0 -0 -0 -0 -0 -0 -0 -0 -0 -0 -0 -0 -0 -0 -0 -0 -0 -0 -0 -0 -0 -0 -0 -0 -0 -0 -0 -0 -0 -0 -0 -0 -0 -0 -0 -0 -0 -0 -0 -0 -0
-0 -0 -0 -0 -0 -0 -0 -0 -0 -0 -0 -0 -0 -0 -0 -0 -0 -0 -0 -0 -0 -0 -0 -0 -0 -0 -0 -0 -0 -0 -0 -0 -0 -0 -0 -0 -0 -0 -0 -0 -0 -0 -0 -0
-0 -0 -0 -0 -0 -0 -0 -0 -0 -0 -0 -0 -0 -0 -0 -0 -0 -0 -0 -0 -0 -0 -0 -0 -0 -0 -0 -0 -0 -0 -0 -0 -0 -0 -0 -0 -0 -0 -0 -0 -0 -0 -0 -0
-0 -0 -0 -0 -0 -0 -0 -0 -0 -0 -0 -0 -0 -0 -0 -0 -0 -0 -0 -0 -0 -0 -0 -0 -0 -0 -0 -0 -0 -0 -0 -0 -0 -0 -0 -0 -0 -0 -0 -0 -0 -0 -0 -0
-0 -0 -0 -0 -0 -0 -0 -0 -0 -0 -0 -0 -0 -0 -0 -0 -0 -0 -0 -0 -0 -0 -0 -0 -0 -0 -0 -0 -0 -0 -0 -0 -0 -0 -0 -0 -0 -0 -0 -0 -0 -0 -0 -0
-0 -0 -0 -0 -0 -0 -0 -0 -0 -0 -0 -0 -0 -0 -0 -0 -0 -0 -0 -0 -0 -0 -0 -0 -0 -0 -0 -0 -0 -0 -0 -0 -0 -0 -0 -0 -0 -0 -0 -0 -0 -0 -0 -0
-0 -0 -0 -0 -0 -0 -0 -0 -0 -0 -0 -0 -0 -0 -0 -0 -0 -0 -0 -0 -0 -0 -0 -0 -0 -0 -0 -0 -0 -0 -0 -0 -0 -0 -0 -0 -0 -0 -0 -0 -0 -0 -0 -0
-0 -0 -0 -0 -0 -0 -0 -0 -0 -0 -0 -0 -0 -0 -0 -0 -0 -0 -0 -0 -0 -0 -0 -0 -0 -0 -0 -0 -0 -0 -0 -0 -0 -0 -0 -0 -0 -0 -0 -0 -0 -0 -0 -0
-0 -0 -0 -0 -0 -0 -0 -0 -0 -0 -0 -0 -0 -0 -0 -0 -0 -0 -0 -0 -0 -0 -0 -0 -0 -0 -0 -0 -0 -0 -0 -0 -0 -0 -0 -0 -0 -0 -0 -0 -0 -0 -0 -0
-0 -0 -0 -0 -0 -0 -0 -0 -0 -0 -0 -0 -0 -0 -0 -0 -0 -0 -0 -0 -0 -0 -0 -0 -0 -0 -0 -0 -0 -0 -0 -0 -0 -0 -0 -0 -0 -0 -0 -0 -0 -0 -0 -0
-0 -0 -0 -0 -0 -0 -0 -0 -0 -0 -0 -0 -0 -0 -0 -0 -0 -0 -0 -0 -0 -0 -0 -0 -0 -0 -0 -0 -0 -0 -0 -0 -0 -0 -0 -0 -0 -0 -0 -0 -0 -0 -0 -0
Wind_Speed
2 0 0 2 4 3 5 5 5 6 5 6 14 13 12 13 12 12 10 9 7 5 5 4 5 5 5 5 5 5 5 5 6 6 6 7 9 10 10 10 9 7 5 5
3 7 4 2 4 3 3 3 7 3 3 1 6 8 10 14 14 12 10 9 8 6 6 5 5 5 5 6 6 5 5 5 5 6 7 9 9 9 9 9 9 7 7 6
3 4 5 5 0 2 1 1 3 4 5 6 9 12 12 12 12 12 11 10 8 6 6 5 5 6 7 5 5 5 5 5 6 7 7 8 8 9 9 9 9 9 9 6
2 3 1 5 4 3 3 4 5 4 11 7 8 6 6 6 13 12 11 10 7 6 5 5 6 8 7 6 6 5 5 5 6 6 7 7 9 9 9 7 8 7 9 10
4 3 5 2 3 2 3 3 4 8 10 12 10 6 7 6 7 10 8 7 6 6 5 6 8 7 8 7 6 5 5 5 6 6 6 7 9 9 8 8 8 9 9 11
2 4 6 5 2 2 4 4 4 10 12 13 7 3 4 7 10 10 8 7 7 6 7 10 6 7 8 6 5 4 4 5 5 5 5 6 5 7 6 5 7 7 9 9
2 1 7 7 4 3 2 7 2 7 8 8 4 2 13 11 9 8 8 9 9 10 9 8 6 7 7 4 4 4 5 6 5 4 5 4 4 5 6 7 6 7 8 9
3 2 7 5 4 6 6 2 6 4 4 9 12 13 13 12 11 11 9 9 11 10 8 6 5 5 5 5 4 4 5 5 5 5 4 3 5 5 5 6 8 9 10 9
9 7 6 4 4 3 5 7 5 7 8 14 15 12 14 12 11 9 8 9 9 10 9 6 5 5 5 3 4 5 5 4 5 5 4 4 5 5 4 5 6 9 9 9
5 2 5 5 4 4 3 5 7 7 13 13 14 15 13 10 10 8 6 10 10 9 7 5 4 4 3 4 3 3 4 5 5 5 4 4 4 4 3 4 6 7 8 8
2 6 9 6 2 6 7 9 11 8 11 14 16 13 13 11 10 7 8 9 8 7 6 5 4 3 4 3 4 5 5 4 5 4 4 5 5 4 3 2 10 6 7 6
6 5 6 3 2 7 9 8 9 14 11 10 15 13 12 10 7 10 9 9 8 7 6 3 3 3 3 3 4 4 4 4 3 3 4 4 4 5 11 8 17 19 19 12
5 5 8 7 6 4 8 7 7 12 14 14 10 12 10 8 6 11 9 8 8 7 5 3 3 3 4 5 4 5 4 3 3 4 3 4 4 5 4 7 14 18 20 21
9 9 8 3 5 8 12 11 14 12 10 11 13 9 9 10 9 9 8 7 7 6 4 3 3 4 4 5 5 5 4 6 4 2 2 3 3 3 2 5 6 8 14 17
7 7 6 8 10 10 11 12 13 11 10 10 8 10 10 11 9 7 6 6 6 5 3 3 5 5 4 3 5 5 4 3 3 3 4 4 4 4 5 6 6 6 8 10
7 8 8 9 10 10 11 9 14 8 8 8 8 7 8 9 9 8 5 6 7 5 3 4 4 3 4 4 4 4 4 5 5 3 4 4 4 5 6 5 6 6 8 9
8 4 5 6 8 8 6 7 10 9 7 9 8 9 10 9 6 7 3 3 5 5 5 5 3 1 4 4 5 3 3 4 4 3 4 3 3 5 5 4 5 6 6 8
6 6 5 4 7 10 7 7 8 9 6 8 10 9 9 9 8 6 5 2 5 3 4 4 3 2 3 4 3 3 4 3 3 3 3 3 4 5 4 4 5 5 5 7
8 6 6 7 8 10 9 8 6 8 8 6 9 7 7 6 7 5 5 5 4 5 3 4 4 2 2 3 4 4 4 4 3 3 3 4 4 3 3 3 4 5 5 5
8 7 8 9 8 8 11 8 10 8 5 6 9 8 6 5 7 6 4 5 5 3 5 5 4 4 4 3 4 4 4 4 3 3 2 3 3 3 2 4 3 4 3 4
7 7 8 8 7 7 6 7 8 8 5 7 8 7 7 6 6 7 5 3 4 5 5 6 4 3 3 4 4 3 3 3 3 3 3 3 3 2 2 2 2 2 2 3
4 5 6 6 6 7 5 5 5 5 5 6 7 7 7 7 5 4 3 4 2 5 4 4 4 5 4 5 3 3 3 3 3 3 3 3 3 2 1 2 2 1 2 2
5 5 4 5 7 6 5 5 5 6 6 7 7 7 7 5 6 6 5 5 4 5 4 4 4 6 6 3 4 4 4 4 3 3 3 3 3 3 2 2 1 1 1 1
5 5 5 5 6 7 7 6 5 5 4 5 5 6 6 4 1 3 3 4 7 6 4 4 5 6 6 4 4 4 3 4 4 3 3 4 3 3 2 3 2 1 1 0
6 6 6 7 6 5 5 6 5 4 4 4 5 5 7 4 4 4 4 4 6 7 4 6 6 6 3 3 4 4 4 4 4 4 4 3 4 3 3 3 3 3 2 2
5 4 5 7 5 4 4 5 5 4 5 5 5 3 3 2 2 2 4 6 6 7 5 5 5 4 4 4 4 5 4 4 4 4 5 4 4 4 4 4 3 3 4 3
1 1 2 2 3 4 5 6 6 6 6 5 4 4 5 4 4 4 5 5 5 6 5 5 4 5 5 5 4 4 4 4 5 5 4 4 4 4 4 5 4 4 4 3
Wind_Direction
128 71 32 208 241 234 186 195 179 247 246 203 188 167 153 145 143 145 147 143 139 140 125 124 102 93 92 82 70 56 42 30 3 348 339 343 352 346 351 356 359 2 29 17
47 7 52 250 274 238 248 257 262 198 227 9 140 112 135 153 158 157 150 144 136 118 127 113 102 102 94 78 62 58 39 28 359 348 346 357 1 355 1 4 2 7 12 15
216 341 356 334 35 169 205 72 243 269 208 156 133 150 160 165 160 147 139 134 136 128 120 110 98 104 90 84 76 55 37 19 0 358 358 13 11 6 3 6 360 360 11 9
177 22 23 248 304 154 106 23 345 82 145 148 121 76 75 115 132 132 130 131 129 114 117 102 100 92 95 78 65 56 34 4 358 4 7 23 21 9 5 357 357 359 11 3
123 197 293 112 12 172 179 324 327 128 114 116 116 74 22 67 106 125 126 133 129 131 118 89 99 99 87 69 57 39 12 357 357 6 21 32 25 10 3 357 0 0 8 1
94 147 210 227 178 124 78 312 19 125 145 156 167 143 195 136 119 121 125 122 124 102 84 97 84 88 83 68 54 30 0 342 353 17 37 38 27 14 357 346 356 358 4 357
121 236 288 247 236 71 143 230 150 161 165 166 186 231 132 127 117 119 118 125 100 91 89 101 95 95 86 74 47 9 349 334 3 52 68 38 25 16 357 351 351 6 4 352
133 159 281 187 94 172 198 114 144 107 111 99 117 120 123 128 129 129 134 118 111 104 98 91 90 95 90 68 352 356 356 10 26 64 54 32 26 8 3 349 5 12 6 1
171 211 220 182 151 152 148 139 165 123 140 139 137 138 139 142 143 140 135 114 121 117 105 85 78 82 89 348 346 352 14 18 36 48 35 11 8 2 13 354 18 15 6 358
113 167 160 125 83 124 129 126 133 137 147 145 141 145 145 139 136 136 141 121 124 112 107 102 85 74 40 313 312 71 46 46 41 35 27 8 356 3 26 357 23 19 4 358
58 86 81 50 95 122 98 95 98 109 142 141 138 143 143 137 140 127 105 113 113 114 113 105 84 30 357 2 61 86 64 49 36 28 19 11 11 10 38 332 44 22 6 350
212 171 129 135 129 134 119 122 121 117 115 135 138 139 134 135 126 123 123 121 112 110 117 131 79 13 351 60 65 83 72 49 35 27 17 26 23 14 41 30 41 32 25 25
151 90 98 112 102 101 110 127 116 123 133 130 122 127 130 116 116 123 112 113 123 134 140 124 69 68 55 66 78 72 80 56 28 34 29 30 28 31 18 6 30 31 30 24
99 88 51 40 123 98 101 94 91 84 90 106 117 107 106 111 112 113 119 129 128 129 126 108 67 89 88 87 87 86 69 55 54 28 31 31 25 0 10 25 12 14 19 24
72 74 116 105 94 98 106 109 91 93 101 87 86 112 121 124 123 122 121 121 113 110 96 92 120 74 49 97 89 86 69 76 63 48 46 41 25 27 37 30 27 26 11 14
90 89 93 116 120 120 110 99 107 104 101 103 107 95 98 104 120 127 125 135 133 150 135 111 102 61 30 144 118 77 67 87 69 54 52 40 27 45 40 29 30 32 27 13
99 90 106 117 132 140 132 123 128 133 126 122 117 118 114 110 97 119 138 154 135 144 140 135 180 51 17 107 137 115 93 86 87 60 59 45 44 50 40 34 34 33 32 18
82 77 47 127 131 120 107 106 118 124 125 135 127 124 128 140 151 155 171 163 104 79 150 158 168 106 91 85 104 103 104 93 83 80 68 42 56 59 47 45 39 35 26 19
75 66 47 68 114 113 120 121 116 116 125 133 128 140 143 142 147 160 142 119 131 155 219 178 169 147 150 99 91 110 113 106 95 84 77 74 58 55 49 44 45 34 29 26
70 63 65 72 64 113 121 118 135 131 132 124 119 125 135 156 148 141 133 166 185 185 165 183 176 190 183 137 102 118 128 125 116 102 72 77 75 58 45 61 53 40 19 27
80 81 82 87 92 94 108 131 136 144 151 146 138 152 162 153 151 144 145 177 236 221 181 167 174 188 170 136 128 137 129 127 129 119 110 116 92 56 59 62 52 47 27 23
107 105 111 107 105 108 124 123 124 127 133 137 128 128 134 155 156 174 190 179 201 173 161 169 186 188 158 145 151 135 136 136 143 124 118 124 119 122 87 82 78 32 39 29
147 145 129 138 149 144 124 133 146 151 149 151 146 152 167 172 171 168 195 217 181 189 178 173 177 157 155 141 137 142 140 141 156 154 153 150 158 167 171 158 185 137 74 16
152 155 158 150 151 161 169 165 167 157 150 146 147 147 161 166 198 194 187 176 166 162 182 171 171 158 154 145 145 153 163 163 173 180 173 163 171 169 177 177 176 214 195 132
150 151 149 157 171 185 158 152 161 158 169 183 182 180 191 179 179 200 180 186 181 166 171 177 171 170 156 168 169 174 182 181 187 178 186 176 189 193 196 194 200 199 199 217
150 170 179 183 186 168 161 162 180 178 194 207 215 181 187 189 190 211 186 187 175 175 173 174 173 172 179 183 192 193 195 196 189 197 194 192 188 193 197 204 203 201 203 212
70 125 185 187 196 177 172 177 174 193 196 192 209 190 197 200 207 202 186 173 170 176 175 180 181 186 186 196 199 208 205 201 197 194 192 195 193 199 198 204 207 202 199 202